User: anonymous   Login
Location: Unspecified
(0.0000°N, 0.0000°E)
Time: 12:17:48
(UTC+00:00)
Language:

COSMOS 2468 - Orbit

View from above orbital plane
View from above orbital plane
View from above satellite
View from above satellite

Ground track
Ground track

The orbit data is extracted from the following two-line orbital elements,

1 37154U 10043C   18350.17968654  .00000007  00000-0 -18346-4 0  9995
2 37154  82.4601 337.6591 0014559 158.8777 201.2911 12.43644697375348
Epoch (UTC): 16 December 2018 04:18:44
Eccentricity: 0.0014559
inclination: 82.4601°
perigee height: 1480 km
apogee height: 1502 km
right ascension of ascending node: 337.6591°
argument of perigee: 158.8777°
revolutions per day: 12.43644697
mean anomaly at epoch: 201.2911°
orbit number at epoch: 37534

The dashed part of the orbit path shows where the satellite is in the earth's shadow,  

DLR